Lamar, CO

9:50 PM MDT on April 24, 2018 (GMT -0600)
Lamar Municipal

Weather History for KLAA - July, 2014

Change the Weather History Date:

Thursday, July 3, 2014

  Actual Average Record
Temperature  
Mean Temperature 77 °F 76 °F  
Max Temperature 93 °F 92 °F 107 °F (1934)
Min Temperature 61 °F 60 °F 47 °F (1992)
Degree Days  
Heating Degree Days 0 0  
Month to date heating degree days 0 0  
Since 1 June heating degree days 9 20  
Since 1 July heating degree days 0 0  
Cooling Degree Days 12 11  
Month to date cooling degree days 27 33  
Year to date cooling degree days 431 313  
Since 1 June cooling degree days 338 253  
Growing Degree Days 27 (Base 50)    
Moisture  
Dew Point 58 °F    
Average Humidity 60    
Maximum Humidity 90    
Minimum Humidity 30    
Precipitation  
Precipitation 0.00 in 0.07 in 0.63 in (2008)
Month to date precipitation T 0.22  
Year to date precipitation 4.33  
Sea Level Pressure  
Sea Level Pressure 29.95 in    
Wind  
Wind Speed 16 mph (SSE)    
Max Wind Speed 29 mph    
Max Gust Speed 37 mph    
Visibility 8 miles    
Events      
T = Trace of Precipitation, MM = Missing Value Source: NWS Daily Summary

Daily Weather History Graph

Daily Weather History Graph

Search for Another Location

Airport or City:

Astronomy

Jul. 03, 2014 Rise Set
Actual Time 5:32 AM MDT 8:17 PM MDT
Civil Twilight 5:01 AM MDT 8:48 PM MDT
Nautical Twilight 4:22 AM MDT 9:27 PM MDT
Astronomical Twilight 3:37 AM MDT 10:11 PM MDT
Moon 11:27 AM MDT (7/3) 11:46 PM MDT (7/3)
Length of Visible Light 15h 47m
Length of Day
14h 44m
Waxing Crescent, 33% of the Moon is Illuminated
Jul 3
Waxing Crescent
Jul 5
First Quarter
Jul 12
Full
Jul 18
Last Quarter
Jul 26
New

Hourly Weather History & Observations

Time (MDT) Temp. Heat Index Dew Point Humidity Pressure Visibility Wind Dir Wind Speed Gust Speed Precip Events Conditions
12:53 AM 64.9 °F - 55.9 °F 73% 30.08 in 9.0 mi SE 15.0 mph - N/A   Partly Cloudy
1:53 AM 64.0 °F - 57.0 °F 78% 30.07 in 9.0 mi SE 6.9 mph - N/A   Clear
2:53 AM 64.0 °F - 57.9 °F 80% 30.04 in 8.0 mi SE 9.2 mph - N/A   Clear
3:53 AM 63.0 °F - 57.9 °F 84% 30.04 in 8.0 mi East 6.9 mph - N/A   Clear
4:53 AM 61.0 °F - 57.0 °F 87% 30.03 in 7.0 mi ENE 4.6 mph - N/A   Clear
5:53 AM 64.0 °F - 59.0 °F 84% 30.03 in 6.0 mi South 9.2 mph - N/A   Haze
6:53 AM 66.9 °F - 59.0 °F 76% 30.01 in 8.0 mi SSW 10.4 mph - N/A   Clear
8:53 AM 78.1 °F - 57.9 °F 50% 29.99 in 9.0 mi SSW 15.0 mph - N/A   Clear
9:53 AM 82.0 °F 82.1 °F 59.0 °F 45% 29.97 in 9.0 mi SW 8.1 mph 18.4 mph N/A   Partly Cloudy
10:53 AM 84.0 °F 83.5 °F 57.9 °F 41% 29.96 in 10.0 mi SSE 6.9 mph 17.3 mph N/A   Clear
11:53 AM 87.1 °F 86.1 °F 57.9 °F 37% 29.94 in 9.0 mi SSE 13.8 mph 21.9 mph N/A   Clear
1:53 PM 91.0 °F 90.0 °F 57.9 °F 33% 29.90 in 9.0 mi SSE 18.4 mph 29.9 mph N/A   Clear
2:53 PM 93.0 °F 91.7 °F 57.0 °F 30% 29.88 in 9.0 mi SE 18.4 mph 29.9 mph N/A   Clear
3:53 PM 91.9 °F 90.8 °F 57.9 °F 32% 29.87 in 8.0 mi SSE 21.9 mph 29.9 mph N/A   Clear
4:53 PM 91.9 °F 90.8 °F 57.9 °F 32% 29.86 in 8.0 mi SSE 27.6 mph 35.7 mph N/A   Clear
5:53 PM 88.0 °F 86.7 °F 57.0 °F 35% 29.86 in 8.0 mi South 21.9 mph 31.1 mph N/A   Clear
6:53 PM 87.1 °F 85.9 °F 57.0 °F 36% 29.87 in 8.0 mi SSE 21.9 mph 29.9 mph N/A   Clear
7:53 PM 84.0 °F 83.3 °F 57.0 °F 40% 29.88 in 8.0 mi South 21.9 mph 29.9 mph N/A   Clear
8:53 PM 81.0 °F 81.1 °F 57.9 °F 45% 29.88 in 9.0 mi SSE 19.6 mph - N/A   Clear
9:53 PM 80.1 °F 80.7 °F 59.0 °F 48% 29.89 in 9.0 mi SSE 19.6 mph 28.8 mph N/A   Clear
10:53 PM 78.1 °F - 59.0 °F 52% 29.89 in 10.0 mi SSE 23.0 mph - N/A   Clear
11:53 PM 75.9 °F - 61.0 °F 60% 29.88 in 10.0 mi SSE 24.2 mph - N/A   Clear